Regional Weather Roundup
Issued by NWS

Home | Current Version | Previous Version | Text Only | Print | Product List | Glossary On
Versions: 1 2 3 4 5 6 7 8 9 10 11 12 13 14 15 16 17 18 19 20 21 22 23 24 25 26 27
000
ASUS45 KBOU 220407
RWRCO

WEATHER ROUNDUP FOR COLORADO
NATIONAL WEATHER SERVICE DENVER/BOULDER CO
1000 PM MDT WED JUN 21 2017

NOTE: "FAIR" INDICATES FEW OR NO CLOUDS BELOW 12000 FEET WITH NO
SIGNIFICANT WEATHER AND/OR OBSTRUCTIONS TO VISIBILITY.

COZ001>005-013-030-031-220500-
...NORTHWEST COLORADO...

CITY           SKY/WX    TMP DP  RH WIND       PRES   REMARKS
CRAIG          FAIR      67  44  43 SE3       30.06S
HAYDEN         FAIR      66  43  42 E8        30.10R
MEEKER         FAIR      65  44  46 E5        30.08S
RABBIT EARS PA FAIR      57  32  38 NW5       30.44S
STEAMBOAT SPGS FAIR      63  46  53 CALM      30.13R
WALDEN         FAIR      57  43  58 SE8       30.23S
$$

COZ006>008-011-220500-
...WEST CENTRAL VALLEYS...

CITY           SKY/WX    TMP DP  RH WIND       PRES   REMARKS
GRAND JUNCTION FAIR      86  34  15 VRB5      29.91R
MONTROSE       FAIR      80  36  20 SE8       30.03R
EAGLE          FAIR      73  40  30 E7        30.14R
RIFLE          FAIR      78  42  27 SE10      30.01S
DELTA          FAIR      86  32  14 E6        29.97R
NUCLA          FAIR      81  30  16 E10       30.06S
$$

COZ017>023-064>068-220500-
...SOUTHWEST COLORADO...

CITY           SKY/WX    TMP DP  RH WIND       PRES   REMARKS
DURANGO        FAIR      73  33  23 N5        30.08R
CORTEZ         FAIR      67  44  43 NE10      30.03R
PAGOSA SPRINGS FAIR      67  33  28 NE3       30.19S
TELLURIDE      FAIR      66  32  27 CALM      30.36S
WOLF CREEK PAS FAIR      55  27  33 NW5       30.62S
$$

COZ009-010-012-014-032>034-037-058>063-220500-
...CENTRAL COLORADO...

CITY           SKY/WX    TMP DP  RH WIND       PRES   REMARKS
ASPEN          FAIR      63  40  42 S8        30.22F
BUENA VISTA    FAIR      69  28  21 W7        30.25R
COPPER MTN     FAIR      55  28  35 W12       30.57F
BERTHOUD PASS  FAIR      46  34  61 MISG      30.58F
COTTONWOOD PAS FAIR      68  23  18 W12       30.41R
GUNNISON       FAIR      69  41  36 N9        30.22R
KREMMLING      NOT AVBL
LEADVILLE      FAIR      56  31  38 CALM      30.39F
MONARCH PASS   FAIR      55  27  33 N5        30.70R
SALIDA         FAIR      72  34  24 CALM      30.27R
SUNLIGHT       FAIR      59  28  31 W3        30.50S
WILKERSON PASS FAIR      57  25  28 NW10G18   30.55R
$$

COZ069>075-220500-
...SAN LUIS VALLEY/SANGRE DE CRISTO MOUNTAINS...

CITY           SKY/WX    TMP DP  RH WIND       PRES   REMARKS
ALAMOSA        FAIR      63  40  42 SW5       30.16R
DEL NORTE      FAIR      69  29  22 NW8       30.22R
LA VETA PASS   FAIR      63  34  34 MISG      30.51S
SAGUACHE       FAIR      68  32  26 N7        30.21S
$$

COZ035-036-038>040-220500-
...NORTHERN COLORADO FRONT RANGE...

CITY           SKY/WX    TMP DP  RH WIND       PRES   REMARKS
DENVER INTL AP MOCLDY    78  38  23 W7        29.96F
DMNS CITY PARK   N/A     78  40  25 W6        29.96F
AURORA         MOCLDY    77  40  26 W8        29.99F
FRONT RANGE AP FAIR      79  36  21 S8        29.97F
ERIE MUNI ARPT FAIR      80  35  19 SW6       29.94R
BOULDER MUN AP FAIR      82  36  18 W14       29.94S
CENTENNIAL     FAIR      72  41  32 S3        30.01F
BROOMFIELD     MOCLDY    81  39  22 W10       29.99S
FORT COLLINS   FAIR      79  39  23 S5        29.92R
LONGMONT       FAIR      82  39  21 SW8       29.94S
$$

COZ041-046-047-076>085-087-088-220500-
...PIKES PEAK/PALMER DIVIDE AND SOUTHERN FOOTHILLS...

CITY           SKY/WX    TMP DP  RH WIND       PRES   REMARKS
COLO. SPRINGS  FAIR      71  43  36 N7        30.07R
A. F. ACADEMY  FAIR      66  45  46 N7        30.10R
SCHRIEVER AFB  NOT AVBL
CHEYENNE MTN   NOT AVBL
ELLICOTT       FAIR     N/A N/A N/A N8        30.05R
FALCON           N/A     67  36  31 N6        30.14R
FORT CARSON    FAIR      70  40  32 NW5       30.02R
LIMON          FAIR      69  38  32 W8        29.97R
MONUMENT HILL  FAIR      64  37  36 W5        30.15S
CANON CITY     CLEAR     75  41  29 W5        30.00R
WALSENBURG     NOT AVBL
TRINIDAD       FAIR      67  46  47 SW8       30.02R
$$

COZ042>045-048>051-090-091-220500-
...NORTHEAST COLORADO...

CITY           SKY/WX    TMP DP  RH WIND       PRES   REMARKS
GREELEY ARPT   FAIR      79  41  25 SW3       29.89R
AKRON          FAIR      80  38  22 CALM      29.89R
BURLINGTON     FAIR      73  50  44 SE5       29.85R
WRAY           FAIR      77  46  33 S3        29.80R
YUMA           NOT AVBL
STERLING       FAIR      75  45  33 NW8       29.83R
HOLYOKE        NOT AVBL
FORT MORGAN    FAIR      77  36  22 W6        29.89S
$$

COZ086-089-092>099-220500-
...SOUTHEAST COLORADO...

CITY           SKY/WX    TMP DP  RH WIND       PRES   REMARKS
PUEBLO         FAIR      68  50  52 VRB5      29.92R
LA JUNTA       FAIR      77  50  38 W12       29.87R
LAMAR          FAIR      76  48  37 S7        29.82R
SPRINGFIELD      N/A     73  52  47 VRB3      29.92R
$$




USA.gov is the U.S. government's official web portal to all federal, state and local government web resources and services.